Regional Weather Roundup
Issued by NWS

Home | Current Version | Previous Version | Text Only | Print | Product List | Glossary On
Versions: 1 2 3 4 5 6 7 8 9 10 11 12 13 14 15 16 17 18 19 20 21 22 23 24 25 26 27 28 29 30 31 32 33 34 35 36 37 38 39 40 41 42 43 44 45 46 47 48 49 50
000
ASUS44 KFWD 060015
RWRTX
NORTH TEXAS HOURLY WEATHER ROUNDUP
NATIONAL WEATHER SERVICE FORT WORTH TX
600 PM CST FRI FEB 05 2016

NOTE: "FAIR" INDICATES FEW OR NO CLOUDS BELOW 12,000 FEET WITH NO
SIGNIFICANT WEATHER AND/OR OBSTRUCTIONS TO VISIBILITY.

TXZ118-119-060100-
DALLAS/FORT WORTH METROPLEX

CITY           SKY/WX    TMP DP  RH WIND       PRES   REMARKS
DFW AIRPORT    MOCLDY    52  22  30 S13       30.28R
6HR MIN TEMP:  52; 6HR MAX TEMP:  59;

DALLAS LOVE    MOCLDY    53  22  29 S14       30.29S
6HR MIN TEMP:  53; 6HR MAX TEMP:  58;

FTW MEACHAM    PTCLDY    53  24  32 S12       30.27R
6HR MIN TEMP:  53; 6HR MAX TEMP:  59;

DAL-EXECUTIVE  CLEAR     52  21  29 S8        30.28S
6HR MIN TEMP:  52; 6HR MAX TEMP:  58;

FTW-ALLIANCE   MOCLDY    52  23  32 S14       30.27R
6HR MIN TEMP:  52; 6HR MAX TEMP:  59;

FTW-NAS-JRB    PTCLDY    55  22  27 S12       30.28R
6HR MIN TEMP:  55; 6HR MAX TEMP:  60;

FTW-SPINKS     CLEAR     54  23  30 SE8       30.30R
ARLINGTON      CLEAR     55  22  27 SE10      30.29R
6HR MIN TEMP:  54; 6HR MAX TEMP:  60;

MESQUITE       CLEAR     52  21  30 SE9       30.31S
LANCASTER      CLEAR     52  19  28 SE9       30.30F
6HR MIN TEMP:  52; 6HR MAX TEMP:  57;

$$

TXZ091>094-102>105-117-120-121-131>134-060100-
NORTH CENTRAL TEXAS

CITY           SKY/WX    TMP DP  RH WIND       PRES   REMARKS
SHRMAN/DENISON MOCLDY    52  22  30 SE14      30.29R
6HR MIN TEMP:  52; 6HR MAX TEMP:  57;

GAINESVILLE    CLOUDY    52  25  35 S10       30.29R
6HR MIN TEMP:  52; 6HR MAX TEMP:  56;

BOWIE          CLOUDY    52  23  32 SE9       30.23S
6HR MIN TEMP:  52; 6HR MAX TEMP:  57;

BRIDGEPORT     CLOUDY    54  28  37 SE12G22   30.27R
6HR MIN TEMP:  54; 6HR MAX TEMP:  58;

DECATUR        MOCLDY    53  22  30 SE12G17   30.25S
6HR MIN TEMP:  52; 6HR MAX TEMP:  56;

DENTON         PTCLDY    52  25  35 S10       30.28R
6HR MIN TEMP:  52; 6HR MAX TEMP:  58;

MCKINNEY       CLEAR     50  24  36 SE9       30.30R
6HR MIN TEMP:  50; 6HR MAX TEMP:  57;

GREENVILLE     CLEAR     46  23  39 SE7       30.32S
ROCKWALL       CLEAR     52  22  31 S9        30.29F
6HR MIN TEMP:  52; 6HR MAX TEMP:  57;

TERRELL        CLEAR     50  22  33 S6        30.32S
6HR MIN TEMP:  50; 6HR MAX TEMP:  56;

WAXAHACHIE     CLEAR     52  26  36 SE6       30.30F
6HR MIN TEMP:  52; 6HR MAX TEMP:  57;

CLEBURNE       CLEAR     52  23  32 SE12G17   30.29R
GRANBURY       MOCLDY    56  24  28 SE9       30.27R
6HR MIN TEMP:  55; 6HR MAX TEMP:  60;

$$

TXZ083>090-098>101-113>116-127>130-139>142-154-155-060100-
WESTERN NORTH TEXAS

CITY           SKY/WX    TMP DP  RH WIND       PRES   REMARKS
WICHITA FALLS  MOCLDY    54  24  31 S12       30.19S
6HR MIN TEMP:  53; 6HR MAX TEMP:  60;

WF-KICKAPOO    MOCLDY    55  25  31 SE10      30.21S
6HR MIN TEMP:  54; 6HR MAX TEMP:  60;

VERNON         PTCLDY    53  14  21 NW10      30.19S
6HR MIN TEMP:  27; 6HR MAX TEMP:  83;

ABILENE        CLOUDY    56  24  29 SW8       30.19S
6HR MIN TEMP:  50; 6HR MAX TEMP:  59;

ABILENE-DYESS  MOCLDY    57  22  25 W10       30.18R
6HR MIN TEMP:  51; 6HR MAX TEMP:  60;

BRECKENRIDGE   MOCLDY    58  22  25 S8        30.20F
6HR MIN TEMP:  55; 6HR MAX TEMP:  61;

GRAHAM         PTCLDY    55  26  32 SE6       30.19F
6HR MIN TEMP:  55; 6HR MAX TEMP:  61;

MINERAL WELLS  CLOUDY    55  23  28 S10       30.23R
6HR MIN TEMP:  54; 6HR MAX TEMP:  59;

STEPHENVILLE   CLEAR     55  23  29 S8        30.27R
6HR MIN TEMP:  51; 6HR MAX TEMP:  58;

COMANCHE       PTCLDY    53  27  36 S8        30.24S
6HR MIN TEMP:  53; 6HR MAX TEMP:  59;

BROWNWOOD      PTCLDY    55  21  26 S8        30.23S
COLEMAN        CLOUDY    57  24  28 S7        30.21S
6HR MIN TEMP:  53; 6HR MAX TEMP:  60;

$$

TXZ143>147-156>162-174-175-060100-
CENTRAL TEXAS

CITY           SKY/WX    TMP DP  RH WIND       PRES   REMARKS
WACO           CLEAR     52  21  29 SE9       30.30R
6HR MIN TEMP:  52; 6HR MAX TEMP:  59;

WACO-TSTC      CLEAR     54  21  28 SE6       30.31R
WACO-MCGREGOR  CLEAR     54  22  28 SE8       30.30R
6HR MIN TEMP:  54; 6HR MAX TEMP:  59;

HILLSBORO      CLEAR     52  21  29 SE8       30.29F
6HR MIN TEMP:  52; 6HR MAX TEMP:  57;

CORSICANA      CLEAR     52  23  32 S9        30.32S
6HR MIN TEMP:  52; 6HR MAX TEMP:  59;

MEXIA          CLEAR     51  21  30 S5        30.30S
6HR MIN TEMP:  51; 6HR MAX TEMP:  57;

HEARNE         CLEAR     55  26  32 SE7       30.31S
6HR MIN TEMP:  55; 6HR MAX TEMP:  59;

CAMERON        CLEAR     55  27  33 S6        30.30R
6HR MIN TEMP:  55; 6HR MAX TEMP:  60;

TEMPLE         CLEAR     54  24  31 S9        30.29R
6HR MIN TEMP:  54; 6HR MAX TEMP:  59;

KILLEEN        CLEAR     52  24  33 SE6       30.26R
6HR MIN TEMP:  52; 6HR MAX TEMP:  58;

KILLEEN-SKYLRK CLEAR     55  25  31 S7        30.28R
6HR MIN TEMP:  53; 6HR MAX TEMP:  59;

FORT HOOD      CLEAR     55  23  28 S8        30.26R
6HR MIN TEMP:  53; 6HR MAX TEMP:  60;

GATESVILLE     CLEAR     54  23  30 S5        30.29S
HAMILTON       CLEAR     54  25  32 S8        30.26R
6HR MIN TEMP:  53; 6HR MAX TEMP:  59;

LAMPASAS       CLEAR     55  28  35 S3        30.25S
6HR MIN TEMP:  55; 6HR MAX TEMP:  58;

$$

TXZ095>097-106>112-122>126-135>138-148>153-164>167-060100-
EAST TEXAS

CITY           SKY/WX    TMP DP  RH WIND       PRES   REMARKS
PARIS          CLEAR     46  19  34 SE9       30.32F
6HR MIN TEMP:  46; 6HR MAX TEMP:  55;

SULPHUR SPRNGS CLEAR     51  18  27 CALM      30.34S
6HR MIN TEMP:  51; 6HR MAX TEMP:  56;

MOUNT PLEASANT CLEAR     51  15  23 CALM      30.35S
6HR MIN TEMP:  50; 6HR MAX TEMP:  56;

GILMER         CLEAR     50  19  28 CALM      30.33S
6HR MIN TEMP:  50; 6HR MAX TEMP:  55;

MINEOLA        CLEAR     52  18  25 SE3       30.33S
TYLER          CLEAR     50  18  28 S5        30.32S
6HR MIN TEMP:  50; 6HR MAX TEMP:  58;

LONGVIEW       CLEAR     49  19  30 SE3       30.33R
6HR MIN TEMP:  49; 6HR MAX TEMP:  56;

MARSHALL       CLEAR     50  11  20 CALM      30.36S
6HR MIN TEMP:  50; 6HR MAX TEMP:  55;

ATHENS         CLEAR     50  21  32 S3        30.32R
PALESTINE      CLEAR     53  18  25 SE5       30.34S
JACKSONVILLE   CLEAR     51  18  28 CALM      30.34R
HENDERSON      CLEAR     51  17  26 CALM      30.34R
6HR MIN TEMP:  51; 6HR MAX TEMP:  56;

CENTER         FAIR      53  18  24 CALM      30.33S
6HR MIN TEMP:  53; 6HR MAX TEMP:  58;

NACOGDOCHES    PTCLDY    50  19  29 E3        30.33S
6HR MIN TEMP:  50; 6HR MAX TEMP:  57;

LUFKIN         PTCLDY    51  25  36 SE3       30.33S
6HR MIN TEMP:  51; 6HR MAX TEMP:  58;

$$

SUPPLEMENTAL OBSERVATIONS (CENTRAL)

CITY           SKY/WX    TMP DP  RH WIND       PRES   REMARKS
LAKE TEXOMA      N/A     52  23  32 SE9         N/A
CADDO GRASSLND   N/A     52  23  32 SE5         N/A
PAT MAYSE LAKE   N/A     52  19  28 E6          N/A
LAKE LIMESTONE   N/A     52  23  32 SE3G14      N/A
MCGREGOR         N/A     54  23  30 S7G15       N/A
TEMPLE           N/A     54  23  30 SE7         N/A
$$

SUPPLEMENTAL OBSERVATIONS (WEST)

CITY           SKY/WX    TMP DP  RH WIND       PRES   REMARKS
MILLERS CREEK    N/A     55  23  28 W10G2C1F1C2F2C3F3C4F4C5F5C6F6C7F7C8F8C9!


USA.gov is the U.S. government's official web portal to all federal, state and local government web resources and services.